Regional Weather Roundup
Issued by NWS Boston, MA

Current Version | Previous Version | Text Only | Print | Product List | Glossary Off
Versions: 1 2 3 4 5 6 7 8 9 10 11 12 13 14 15 16 17 18 19 20 21 22 23 24 25 26 27 28 29 30 31 32 33 34 35 36 37 38 39 40 41 42 43 44 45 46 47 48 49 50
000 ASUS41 KBOX 212110 RWRBOX REGIONAL WEATHER ROUNDUP NATIONAL WEATHER SERVICE TAUNTON MA 500 PM EDT MON AUG 21 2017 NOTE: "FAIR" INDICATES FEW OR NO CLOUDS BELOW 12,000 FEET WITH NO SIGNIFICANT WEATHER AND/OR OBSTRUCTIONS TO VISIBILITY. MAZALL-212200- EASTERN MASSACHUSETTS CITY SKY/WX TMP DP RH WIND PRES REMARKS BOSTON MOSUNNY 85 59 41 W10 30.07F BEVERLY SUNNY 86 59 39 W13 30.06F LAWRENCE SUNNY 87 61 41 SW10 30.09S BEDFORD PTSUNNY 81 62 52 SW3 30.07F BLUE HILL N/A 82 60 47 W9 30.10F NORWOOD MOSUNNY 85 63 47 SW8 30.08S MARSHFIELD MOSUNNY 86 63 45 VRB6G15 30.08S PLYMOUTH MOSUNNY 83 63 50 SW10 30.10S TAUNTON MOSUNNY 84 64 50 S9 30.09S NEW BEDFORD CLOUDY 80 65 59 SW9 30.10S $$ MAZALL-212200- CAPE COD AND THE ISLANDS CITY SKY/WX TMP DP RH WIND PRES REMARKS FALMOUTH CLOUDY 79 66 65 SW16 30.12S HYANNIS CLOUDY 78 67 68 SW12 30.10S CHATHAM CLOUDY 77 71 82 SW7 30.12S PROVINCETOWN MOSUNNY 77 67 71 S9 30.09F NANTUCKET MOSUNNY 74 68 81 SW12 30.13S MARTHAS VNYRD PTSUNNY 77 68 73 SW9 30.12S $$ MAZALL-212200- CENTRAL AND WESTERN MASSACHUSETTS CITY SKY/WX TMP DP RH WIND PRES REMARKS WORCESTER MOSUNNY 79 61 53 SW12 30.14S FITCHBURG MOSUNNY 83 65 54 VRB5 30.10S ORANGE MOSUNNY 81 64 56 SW6 30.10F SPRINGFIELD PTSUNNY 86 62 44 SW13 30.08S WESTFIELD PTSUNNY 83 61 47 SW8 30.10S NORTH ADAMS CLOUDY 82 63 52 CALM 30.10F PITTSFIELD CLOUDY 79 63 57 SW9 30.12F $$ RIZALL-212200- RHODE ISLAND CITY SKY/WX TMP DP RH WIND PRES REMARKS PROVIDENCE PTSUNNY 86 67 52 SW12 30.10F NEWPORT PTSUNNY 78 70 76 VRB6 30.12S BLOCK ISLAND CLOUDY 75 66 73 SW16 30.14S WESTERLY CLOUDY 82 65 56 SW9 30.13S $$ CTZALL-212200- CONNECTICUT CITY SKY/WX TMP DP RH WIND PRES REMARKS BRADLEY INTL PTSUNNY 86 63 45 SW8 30.10F HARTFORD MOSUNNY 86 61 42 VRB7G17 30.10S BRIDGEPORT MOSUNNY 84 67 56 SW12 30.12S DANBURY SUNNY 84 65 52 VRB7 30.13F GROTON CLOUDY 80 67 64 SW12 30.12R NEW HAVEN MOSUNNY 81 65 58 SW9 30.12F CHESTER FAIR 81 64 57 VRB5G12 30.14S MERIDEN SUNNY 84 63 49 S8 30.11F WILLIMANTIC CLOUDY 84 61 45 W8G16 30.11S OXFORD SUNNY 82 64 54 SW7 30.15F $$ MEZ002-015-021-024-NHZ003-005-008-011-012-014-VTZ005-008-212200- NORTHERN NEW ENGLAND CITY SKY/WX TMP DP RH WIND PRES REMARKS PORTLAND ME MOSUNNY 85 61 44 W10G18 30.03F BANGOR ME MOSUNNY 84 62 47 SW8 29.99F CONCORD NH SUNNY 85 61 44 W8 30.07F MANCHESTER NH MOSUNNY 85 58 39 W13G18 30.06F NASHUA NH SUNNY 84 65 52 W7 30.08F PORTSMOUTH NH MOSUNNY 85 63 47 SW9 30.05S JAFFREY NH SUNNY 82 59 45 SW9G16 30.13S KEENE NH N/A N/A N/A N/A MISG N/A BURLINGTON VT MOSUNNY 84 66 54 S12 30.02F MT. WASHINGTON FOG 52 52 100 W41G49 N/A VSB 0 $$ NYZ052-076-212200- EASTERN NEW YORK CITY SKY/WX TMP DP RH WIND PRES REMARKS ALBANY MOSUNNY 84 65 52 S8 30.07F NEW YORK CITY MOSUNNY 85 67 54 S13 30.11F $$ ANZALL-212200- MARINE OBSERVATIONS STATION/POSITION TIME TEMP WIND PRES VSBY WAVE AIR SEA DIR/SP/G HT/PER (UTC) (F) (DEG/KT/KT) (MB) (MI) (FT/S) BOSTON BUOY 2050 73 70 170/ 6/ 8 1018.2S 1 BUZZARDS BAY 2000 70 220/ 12/ 13 1020.3R NANTUCKET SOUND 2050 72 70 240/ 12/ 14 1019.7S 1/ 3 MASS BAY-STELLWA 2004 71 67 170/ 10/ 12 1017.8F 1/ 8 ISLE OF SHOALS 2000 75 180/ 10/ 11 1017.8F S OF BLOCK IS NOT AVBL $$ ......................KEY......................... SKY/WX - SKY CONDITION/PRESENT WEATHER TMP - TEMPERATURE IN FAHRENHEIT DWPT - DEWPOINT IN FAHRENHEIT RH - RELATIVE HUMIDITY IN PERCENT WIND - DIRECTION AND SPEED IN MPH PRES - MEAN SEA LEVEL PRESSURE IN INCHES OF HG WCI - WIND CHILL INDEX VSB - VISIBILITY IN MILES HX - HEAT INDEX TC - TEMPERATURE IN CELSIUS VRB - VARIABLE WIND DIRECTION N/A - NOT AVAILABLE

USA.gov is the U.S. government's official web portal to all federal, state and local government web resources and services.